Location: *
(39.1492°N, 39.6853°E)
Time: 06:22:08
(UTC+00:00)

Daily predictions for brighter satellites

Satellite Brightness Start Highest point End
(mag) Time Altitude Azimuth Time Altitude Azimuth Time Altitude Azimuth
CZ-3 Stage 3 4.0 15:51:08 10° SW 15:56:13 41° SSE 16:17:36 10° E
ARGOS Delta rocket 4.4 16:11:23 10° SSE 16:16:28 50° ENE 16:21:44 10° N
Cosmos 1726 2.4 16:14:19 10° SSE 16:17:54 46° E 16:21:29 10° NNE
SL-8 R/B 3.7 16:14:28 10° WNW 16:19:16 87° NNE 16:24:03 10° ESE
CZ-2C R/B 4.2 16:19:44 10° ENE 16:22:21 14° E 16:24:58 10° ESE
CZ-4 R/B 3.1 16:20:39 10° SSW 16:24:10 35° W 16:27:44 10° NNW
Cosmos 1939 Rocket 4.0 16:20:39 10° S 16:24:25 46° W 16:28:10 10° NNW
Cosmos 407 Rocket 4.0 16:19:45 10° SSE 16:24:25 36° E 16:29:04 10° NE
ARGOS 3.8 16:19:45 10° SE 16:24:35 35° ENE 16:29:25 10° N
Cosmos 1470 4.4 16:21:12 10° SSW 16:24:51 39° W 16:28:33 10° N
BREEZE M DEB (TANK) 3.2 16:23:51 10° S 16:25:57 22° ESE 16:29:29 10° ENE
ADEOS Rocket 3.8 16:21:24 10° N 16:27:28 56° WNW 16:32:59 10° SSW
Cosmos 1992 Rocket 4.1 16:23:33 10° NNW 16:28:47 87° WSW 16:33:58 10° SSE
STARLINK-29 2.9 16:26:06 10° SW 16:29:15 63° SE 16:32:25 10° NE
Cosmos 1953 2.4 16:25:49 10° S 16:29:46 82° W 16:33:47 10° N
SL-24 R/B - RUBIN 2 4.3 16:27:22 10° SSW 16:32:35 57° ESE 16:38:33 10° NE
STARLINK-60 4.1 16:30:41 10° WSW 16:33:51 45° NW 16:37:02 10° NE
GEOS 3 Rocket 3.7 16:30:10 10° SE 16:35:13 63° NE 16:40:23 10° NNW
Aureole 3 4.4 16:30:53 10° SSW 16:35:31 70° W 16:41:32 10° N
IRIDIUM 106 4.3 16:31:58 10° N 16:37:10 64° E 16:42:19 10° SSE
COSMOS 2455 4.2 16:34:27 10° N 16:39:08 23° NE 16:43:12 12° E
NOSS 3-4 (A) 4.3 16:37:06 10° NNW 16:43:54 47° NE 16:50:18 14° ESE
NOSS 3-4 (C) 4.3 16:37:13 10° NNW 16:44:00 46° NE 16:50:22 14° ESE
CZ-2C R/B 4.4 16:40:52 10° NNE 16:45:07 34° E 16:49:16 10° SSE
SL-08 RB Rocket 4.2 16:46:35 11° SE 16:50:41 40° ENE 16:55:00 10° N
BREEZE-M DEB (TANK) 4.3 16:45:10 10° W 16:50:51 29° NNW 16:53:23 10° NNE
ISS -1.2 16:49:51 10° W 16:52:07 17° SW 16:54:23 10° S
MONITOR-E 3.9 16:50:37 16° SSE 16:52:30 52° ENE 16:55:05 10° N
MOS 1 Rocket 4.3 16:51:26 10° NNE 16:56:17 32° E 17:01:06 10° SSE
ATLAS 5 CENTAUR R/B 1.3 16:53:07 10° SSW 16:57:10 83° ESE 17:01:38 10° NE
Cosmos 2184 Rocket 4.0 16:53:07 10° N 16:59:25 86° E 17:05:37 10° S
Cosmos 2058 Rocket 3.3 16:56:35 10° SSE 17:00:55 48° E 17:05:16 10° NNE
BREEZE-M DEB (TANK) 4.5 16:54:25 10° SSW 17:01:26 35° SSE 17:03:08 23° E
FALCON 9 DEB 3.5 16:59:47 10° WSW 17:03:16 66° NW 17:06:45 10° NE
Cosmos 1437 3.6 17:00:53 10° NNW 17:03:48 47° W 17:06:42 10° S
Aureole 1 Rocket 4.2 16:56:49 10° SSW 17:04:39 90° ESE 17:10:50 10° NNE
Cosmos 1726 Rocket 3.5 17:02:04 10° S 17:06:27 89° W 17:10:55 10° N
Meteor 2-17 Rocket 4.4 17:02:39 10° N 17:08:47 64° E 17:14:53 10° SSE
STARLINK-52 3.6 17:06:34 10° WSW 17:09:43 54° NW 17:12:52 10° NE
H-2A R/B 2.3 17:06:46 10° S 17:11:58 71° WSW 17:17:04 10° NNW
SJ-6B 2.8 17:09:17 12° SSE 17:13:01 86° ENE 17:17:10 10° N
USA 234 3.7 17:07:10 10° ENE 17:13:07 36° SE 17:19:01 10° SSW
Cosmos 1943 Rocket 4.3 17:08:58 10° NW 17:13:28 26° WSW 17:17:58 10° SSW
Nadezhda 1 Rocket 4.0 17:07:13 10° S 17:13:37 89° E 17:20:00 10° N
ATLAS 2AS CENTAUR R/B 2.8 17:08:47 10° NNW 17:16:18 75° NE 17:20:57 23° SE
FREGAT/IRIS 3.6 17:15:02 13° S 17:17:15 40° W 17:19:51 10° NNW
Resurs 01 Rocket 2.4 17:16:46 28° E 17:17:43 31° ENE 17:21:37 10° N
Cosmos 1825 Rocket 4.2 17:13:36 10° NNW 17:17:52 55° W 17:22:06 10° S
Cosmos 921 Rocket 3.4 17:15:32 10° N 17:19:30 41° ENE 17:20:28 35° ESE
GPS 2-04 Rocket1 4.4 17:16:52 10° SSW 17:19:08 19° S 17:19:08 19° S
CZ-2C R/B 3.3 17:15:33 10° S 17:20:25 63° W 17:25:09 10° NNW
Cosmos 2181 Rocket 4.5 17:17:21 21° SE 17:20:50 37° E 17:26:26 10° NNE
Cosmos 2228 4.0 17:17:28 10° SSW 17:21:36 48° W 17:25:49 10° N
Cosmos 2154 Rocket 4.0 17:15:52 10° N 17:22:15 83° E 17:28:33 10° S
Cosmos 1461 3.3 17:19:15 10° NNW 17:23:45 55° NE 17:25:20 36° ESE
Cosmos 1300 2.9 17:25:34 45° ESE 17:25:52 46° E 17:29:33 10° NNE
Cosmos 2369 Rocket 4.1 17:21:59 10° NW 17:26:40 27° WSW 17:31:18 10° SSW
Ariane Rocket 4.1 17:22:45 10° S 17:27:32 42° W 17:32:21 10° NNW
Cosmos 1140 Rocket 3.6 17:24:21 10° SSW 17:29:31 76° WNW 17:34:43 10° NNE
USA 186 3.7 17:30:08 10° SSW 17:33:05 29° W 17:35:57 10° NW
Hubble Space Telescope 2.7 17:33:17 10° SW 17:35:12 17° S 17:35:12 17° S
MINOTAUR IV R/B 4.5 17:31:45 10° SSW 17:36:13 88° WNW 17:40:44 10° NNE
SL-4 R/B 4.4 17:36:23 10° NW 17:38:19 14° NNW 17:40:16 10° NNE
Spot 2 Rocket 4.4 17:39:18 30° ENE 17:39:30 30° ENE 17:43:55 10° N
Cosmos 1340 Rocket 3.6 17:35:39 10° SSW 17:39:36 51° WNW 17:43:33 10° N
DMSP B5D2-2 4.4 17:49:13 10° N 17:54:24 66° WNW 17:59:35 10° SSW
MetOp-A 4.5 17:53:13 25° S 17:56:19 63° W 18:01:38 10° NNW
CZ-2C R/B 2.9 17:57:56 10° N 18:03:04 65° WNW 18:08:13 10° SSW
ERS-1 Rocket 4.4 18:07:12 24° NE 18:07:12 24° NE 18:10:08 10° NNE
Terra 4.1 18:07:51 13° NE 18:07:51 13° NE 18:08:51 10° NNE
Abrixas rocket 4.5 18:03:58 10° NW 18:05:15 21° NNW 18:05:15 21° NNW
Meteor 2-1 Rocket 4.3 18:06:30 60° ESE 18:06:44 60° E 18:12:35 10° NNE
Cosmos 1697 Rocket 4.5 18:03:04 10° N 18:06:38 18° NE 18:06:38 18° NE
COSMOS 2455 3.0 18:19:34 10° NW 18:25:32 64° WSW 18:26:22 58° SSW
Cosmos 1656 4.4 18:25:11 10° N 18:29:42 41° NE 18:29:42 41° NE
Cosmos 1980 Rocket 4.2 18:32:56 10° NNE 18:35:31 16° NE 18:35:31 16° NE
Cosmos 1741 Rocket 4.4 18:38:05 58° N 18:38:05 58° N 18:42:25 10° NNE
SPOT 1/Viking Rocket 4.2 18:40:44 49° N 18:40:44 49° N 18:44:37 10° N
CZ-4C R/B 4.2 18:36:58 10° NNW 18:42:53 27° NE 18:44:07 25° NE
ATLAS 5 CENTAUR R/B 4.3 18:41:12 10° SW 19:23:13 - ESE 18:46:39 32° S
Cosmos 1763 Rocket 4.4 18:47:27 10° NNW 18:50:56 43° NNW 18:50:56 43° NNW
Resurs 01 Rocket 3.7 18:54:20 22° W 18:54:20 22° W 18:57:38 10° NW
Cosmos 2218 Rocket 4.5 18:48:12 10° NNW 18:54:14 54° W 18:54:52 52° WSW
USA 234 3.6 18:49:51 10° NE 18:56:17 62° NW 19:02:42 10° WSW
Cosmos 1833 Rocket 4.5 19:14:51 23° NNE 19:14:51 23° NNE 19:16:52 10° NNE
COSMOS 2406 4.5 19:26:21 37° NW 19:26:21 37° NW 19:30:58 10° N
Terra 4.3 19:46:44 19° NNW 19:46:44 19° NNW 19:48:07 10° NNW
Cosmos 1697 Rocket 4.4 19:45:42 10° NNW 19:48:22 29° NNW 19:48:22 29° NNW
SL-16 R/B 4.5 20:06:30 10° N 20:08:20 18° NNE 20:08:20 18° NNE
Cosmos 1980 Rocket 4.3 20:15:27 10° NNW 20:17:17 22° NNW 20:17:17 22° NNW
CZ-4C R/B 3.9 20:24:45 10° NW 20:29:17 43° NW 20:29:17 43° NW
Cosmos 2344 4.4 20:28:45 10° NNW 20:38:33 84° N 20:38:33 84° N
Cosmos 2297 Rocket 4.4 22:40:07 18° ENE 22:40:07 18° ENE 22:42:03 10° NE
ADEOS II 4.1 22:57:53 10° NE 23:00:29 23° ENE 23:00:29 23° ENE
Cosmos 2227 Rocket 3.9 23:06:13 28° ENE 23:06:13 28° ENE 23:09:15 10° NE
SL-16 R/B 3.7 23:17:35 34° NNW 23:17:35 34° NNW 23:20:54 10° NNW
Resurs 1-4 Rocket 3.9 23:10:44 10° N 23:13:05 27° N 23:13:05 27° N
ARIANE 5 R/B 4.5 23:12:17 10° NE 23:15:31 24° ENE 23:15:31 24° ENE
ATLAS 3B R/B 4.5 23:20:36 18° ESE 23:21:13 19° ESE 23:25:33 10° ENE
USA 267 4.1 23:21:54 10° ENE 23:27:08 41° ESE 23:27:08 41° ESE
SL-16 R/B 4.0 23:37:04 10° N 23:41:55 28° ENE 23:46:45 10° ESE
CZ-2D R/B 3.7 23:40:09 10° N 23:43:03 29° NNW 23:43:03 29° NNW
USA 238 DEB 3.7 23:48:08 73° N 23:48:08 73° N 23:54:24 10° NNE
USA 238 3.7 23:48:13 74° N 23:48:13 74° N 23:54:32 10° NNE
